Sie sind auf Seite 1von 179

Título de trazado: Almacén de Cuarentena

Hobo Refrigerador 2◦C - 8◦C

Mín: Mín: Humedad


Fecha Tiempo Temp, °C HR, %
Temperatura, °C relativa, %

1 06/30/20 12:00:00 AM 4.719 50.61 3.964 49.662


2 06/30/20 01:00:00 AM 5.903 77.561
3 06/30/20 02:00:00 AM 5.21 74.772
4 06/30/20 03:00:00 AM 4.823 71.696
5 06/30/20 04:00:00 AM 4.59 61.484
6 06/30/20 05:00:00 AM 5.724 75.94
7 06/30/20 06:00:00 AM 4.978 73.271
8 06/30/20 07:00:00 AM 4.616 56.826
9 06/30/20 08:00:00 AM 5.852 73.108
10 06/30/20 09:00:00 AM 5.647 75.455
11 06/30/20 10:00:00 AM 5.004 72.635
12 06/30/20 12:00:00 PM 3.964 78.982
13 06/30/20 01:00:00 PM 4.33 60.637
14 06/30/20 02:00:00 PM 3.964 79.944
15 06/30/20 03:00:00 PM 4.069 79.702
16 06/30/20 04:00:00 PM 4.978 80.742
17 06/30/20 05:00:00 PM 5.004 78.836
18 06/30/20 06:00:00 PM 4.642 76.153
19 06/30/20 07:00:00 PM 4.251 64.306
20 06/30/20 08:00:00 PM 5.107 61.204
21 06/30/20 09:00:00 PM 5.236 78.707
22 06/30/20 10:00:00 PM 4.564 75.431
23 06/30/20 11:00:00 PM 4.278 49.662
24 1/7/2020 0:00 5.903 81.644 2.724 50.462
25 1/7/2020 1:00 5.313 78.539
26 1/7/2020 2:00 4.719 75.812
27 1/7/2020 3:00 4.33 50.462
28 1/7/2020 4:00 5.39 79.597
29 1/7/2020 5:00 5.467 79.474
30 1/7/2020 6:00 4.745 76.44
31 1/7/2020 7:00 4.069 50.513
32 1/7/2020 8:00 5.467 80.012
33 1/7/2020 9:00 4.9 77.613
34 1/7/2020 10:00 4.356 70.863
35 1/7/2020 12:00 3.175 74.933
36 1/7/2020 13:00 4.225 79.346
37 1/7/2020 14:00 4.095 79.189
38 1/7/2020 15:00 5.57 74.762
39 1/7/2020 16:00 5.313 79.199
40 1/7/2020 17:00 4.616 79.895
41 1/7/2020 18:00 4.875 79.463
42 1/7/2020 19:00 4.59 78.5
43 1/7/2020 20:00 3.807 72.791
44 1/7/2020 21:00 5.004 80.419
45 1/7/2020 22:00 3.649 79.851
46 1/7/2020 23:00 2.724 76.672
47 2/7/2020 0:00 4.823 80.183 3.807 54.606
48 2/7/2020 1:00 4.121 58.291
49 2/7/2020 2:00 4.304 77.157
50 2/7/2020 3:00 4.564 63.571
51 2/7/2020 4:00 4.719 79.419
52 2/7/2020 5:00 4.486 61.643
53 2/7/2020 6:00 4.538 78.044
54 2/7/2020 7:00 3.807 54.606
55 2/7/2020 8:00 4.797 79.528
56 2/7/2020 9:00 4.667 65.363
57 2/7/2020 10:00 4.512 78.198
58 2/7/2020 0:00 1.785 53.326
59 2/7/2020 11:15 25.215 53.326
60 2/7/2020 12:15 1.785 66.856
61 2/7/2020 13:15 5.287 92.21
62 2/7/2020 14:15 4.304 89.446
63 2/7/2020 15:15 3.912 88.051
64 2/7/2020 16:15 5.749 87.947
65 2/7/2020 17:15 8.223 94.12
66 2/7/2020 18:15 4.745 87.308
67 2/7/2020 19:15 4.069 83.595
68 2/7/2020 20:15 5.442 82.26
69 2/7/2020 21:15 8.049 93.874
70 2/7/2020 22:15 5.184 89.324
71 2/7/2020 23:15 4.121 84.565
72 3/7/2020 0:00 3.122 39.198
73 3/7/2020 0:15 5.081 76.101
74 3/7/2020 1:15 8.099 93.649
75 3/7/2020 2:15 4.875 87.936
76 3/7/2020 3:15 3.728 78.073
77 3/7/2020 4:15 5.672 90.27
78 3/7/2020 5:15 7.322 92.942
79 3/7/2020 6:15 4.771 87.188
80 3/7/2020 7:15 4.745 68.941
81 3/7/2020 8:15 4.304 84.843
82 3/7/2020 9:15 5.903 89.646
83 3/7/2020 10:15 6.893 39.198
84 3/7/2020 11:15 3.122 55.233
85 3/7/2020 12:15 4.642 83.407
86 3/7/2020 13:15 6.969 91.357
87 3/7/2020 14:15 5.519 85.211
88 3/7/2020 15:15 5.03 81.205
89 3/7/2020 16:15 4.745 74.539
90 3/7/2020 17:15 7.095 87.576
91 3/7/2020 18:15 5.621 82.251
92 3/7/2020 19:15 4.797 78.586
93 3/7/2020 20:15 4.59 70.147
94 3/7/2020 21:15 6.26 84.05
95 3/7/2020 22:15 5.339 80.022
96 3/7/2020 23:15 4.667 73.985
97 4/7/2020 0:00 4.512 52.629
98 4/7/2020 0:15 6.158 83.436
99 4/7/2020 1:15 7.924 86.368
100 4/7/2020 2:15 5.519 80.905
101 4/7/2020 3:15 4.642 74.7
102 4/7/2020 4:15 6.056 83.612
103 4/7/2020 5:15 7.523 86.143
104 4/7/2020 6:15 5.133 79.443
105 4/7/2020 7:15 4.693 52.629
106 4/7/2020 8:15 4.978 78.464
107 4/7/2020 9:15 6.361 84.607
108 4/7/2020 10:15 5.467 80.841
109 4/7/2020 11:15 4.512 73.053
110 4/7/2020 12:15 6.132 83.268
111 4/7/2020 13:15 8.124 85.377
112 4/7/2020 14:15 5.467 79.129
113 4/7/2020 15:15 5.236 77.482
114 4/7/2020 16:15 5.081 75.809
115 4/7/2020 17:15 7.724 84.288
116 4/7/2020 18:15 5.57 79.064
117 4/7/2020 19:15 5.544 78.734
118 4/7/2020 20:15 5.21 76.474
119 4/7/2020 21:15 7.422 83.834
120 4/7/2020 22:15 5.493 79.184
121 4/7/2020 23:15 4.823 75.882
122 5/7/2020 0:00 4.512 51.251
123 5/7/2020 0:15 4.59 51.251
124 5/7/2020 1:15 8.522 84.656
125 5/7/2020 2:15 5.8 81.296
126 5/7/2020 3:15 4.978 76.993
127 5/7/2020 4:15 4.512 55.815
128 5/7/2020 5:15 8.323 84.859
129 5/7/2020 6:15 5.339 78.972
130 5/7/2020 7:15 4.538 71.632
131 5/7/2020 8:15 5.826 81.941
132 5/7/2020 9:15 7.548 84.875
133 5/7/2020 10:15 5.159 78.034
134 5/7/2020 11:15 4.538 68.765
135 5/7/2020 12:15 5.57 66.354
136 5/7/2020 13:15 8.746 84.651
137 5/7/2020 14:15 5.826 79.924
138 5/7/2020 15:15 5.724 79.81
139 5/7/2020 16:15 6.107 80.536
140 5/7/2020 17:15 8.721 83.886
141 5/7/2020 18:15 5.775 79.806
142 5/7/2020 19:15 6.132 80.932
143 5/7/2020 20:15 5.877 80.168
144 5/7/2020 21:15 8.124 83.812
145 5/7/2020 22:15 5.724 80.117
146 5/7/2020 23:15 5.184 77.488
147 6/7/2020 0:00 3.201 54.756
148 6/7/2020 0:15 4.564 71.436
149 6/7/2020 1:15 6.463 82.679
150 6/7/2020 2:15 5.621 79.818
151 6/7/2020 3:15 4.926 75.952
152 6/7/2020 4:15 4.512 54.756
153 6/7/2020 5:15 8.423 84.27
154 6/7/2020 6:15 5.055 76.984
155 6/7/2020 7:15 4.486 66.77
156 6/7/2020 8:15 5.8 81.021
157 6/7/2020 9:15 7.548 84.292
158 6/7/2020 10:15 5.519 78.846
159 6/7/2020 11:15 3.781 82.876
160 6/7/2020 12:15 4.434 83.667
161 6/7/2020 13:15 7.498 87.839
162 6/7/2020 14:15 3.964 58.443
163 6/7/2020 15:15 3.201 75.997
164 6/7/2020 16:15 5.416 60.838
165 6/7/2020 17:15 6.818 84.693
166 6/7/2020 18:15 5.493 80.906
167 6/7/2020 19:15 5.493 80.259
168 6/7/2020 20:15 5.133 78.716
169 6/7/2020 21:15 7.422 84.296
170 6/7/2020 22:15 5.724 81.654
171 6/7/2020 23:15 4.952 78.732
172 7/7/2020 0:00 3.201 28.825
173 7/7/2020 0:15 4.069 67.68
174 7/7/2020 1:15 7.246 83.66
175 7/7/2020 2:15 5.493 80.773
176 7/7/2020 3:15 4.667 77.589
177 7/7/2020 4:15 4.095 49.571
178 7/7/2020 5:15 8.298 83.898
179 7/7/2020 6:15 5.159 79.853
180 7/7/2020 7:15 4.069 70.811
181 7/7/2020 8:15 5.467 80.908
182 7/7/2020 9:15 6.969 83.848
183 7/7/2020 10:15 7.648 28.825
184 7/7/2020 11:15 3.201 52.157
185 7/7/2020 12:15 4.512 82.533
186 7/7/2020 13:15 6.463 86.373
187 7/7/2020 14:15 5.672 82.714
188 7/7/2020 15:15 4.693 81.431
189 7/7/2020 16:15 4.434 79.385
190 7/7/2020 17:15 7.372 84.779
191 7/7/2020 18:15 4.069 58.058
192 7/7/2020 19:15 3.728 53.601
193 7/7/2020 20:15 5.004 78.049
194 7/7/2020 21:15 6.716 83.678
195 7/7/2020 22:15 5.339 79.542
196 7/7/2020 23:15 4.408 72.339
197 8/7/2020 0:00 3.912 21.232
198 8/7/2020 0:15 6.107 82.151
199 8/7/2020 1:15 7.949 84.187
200 8/7/2020 2:15 5.698 80.893
201 8/7/2020 3:15 4.849 77.145
202 8/7/2020 4:15 4.771 51.675
203 8/7/2020 5:15 8.198 84.275
204 8/7/2020 6:15 5.442 79.892
205 8/7/2020 7:15 4.486 74.431
206 8/7/2020 8:15 6.005 82.156
207 8/7/2020 9:15 7.523 84.106
208 8/7/2020 10:15 5.39 79.422
209 8/7/2020 11:15 13.091 21.232
210 8/7/2020 12:15 3.912 53.752
211 8/7/2020 13:15 6.666 84.315
212 8/7/2020 14:15 4.9 76.422
213 8/7/2020 15:15 4.59 78.5
214 8/7/2020 16:15 6.26 82.931
215 8/7/2020 17:15 6.716 84.695
216 8/7/2020 18:15 4.642 71.074
217 8/7/2020 19:15 4.693 77.83
218 8/7/2020 20:15 5.004 54.221
219 8/7/2020 21:15 7.799 84.005
220 8/7/2020 22:15 5.544 77.845
221 8/7/2020 23:15 4.616 66.35
222 9/7/2020 0:00 3.544 31.681
223 9/7/2020 0:15 5.724 79.453
224 9/7/2020 1:15 7.146 83.229
225 9/7/2020 2:15 5.57 78.677
226 9/7/2020 3:15 4.59 65.22
227 9/7/2020 4:15 5.467 78.004
228 9/7/2020 5:15 6.716 82.588
229 9/7/2020 6:15 5.004 75.065
230 9/7/2020 7:15 6.158 81.486
231 9/7/2020 8:15 4.512 68.642
232 9/7/2020 9:15 8.099 83.632
233 9/7/2020 10:15 6.183 31.681
234 9/7/2020 11:15 3.544 55.634
235 9/7/2020 12:15 4.797 83.235
236 9/7/2020 13:15 6.944 87.323
237 9/7/2020 14:15 5.775 83.032
238 9/7/2020 15:15 5.107 79.103
239 9/7/2020 16:15 4.408 71.274
240 9/7/2020 17:15 6.868 84.595
241 9/7/2020 18:15 5.647 81.305
242 9/7/2020 19:15 4.616 76.283
243 9/7/2020 20:15 6.107 80.342
244 9/7/2020 21:15 8.024 84.765
245 9/7/2020 22:15 5.57 80.572
246 9/7/2020 23:15 4.642 76.153
247 10/7/2020 0:00 3.754 35.059
248 10/7/2020 0:15 5.8 72.388
249 10/7/2020 1:15 7.899 84.475
250 10/7/2020 2:15 5.647 81.375
251 10/7/2020 3:15 4.304 73.765
252 10/7/2020 4:15 5.493 80.513
253 10/7/2020 5:15 6.792 83.764
254 10/7/2020 6:15 4.926 78.107
255 10/7/2020 7:15 5.775 76.019
256 10/7/2020 8:15 4.225 72.456
257 10/7/2020 9:15 7.949 84.187
258 10/7/2020 10:15 6.994 35.059
259 10/7/2020 11:15 4.434 82.613
260 10/7/2020 12:15 3.754 79.273
261 10/7/2020 13:15 8.646 87.986
262 10/7/2020 14:15 5.954 83.191
263 10/7/2020 15:15 5.877 81.432
264 10/7/2020 16:15 5.877 80.617
265 10/7/2020 17:15 8.696 85.159
266 10/7/2020 18:15 6.056 81.636
267 10/7/2020 19:15 5.928 81.081
268 10/7/2020 20:15 5.39 78.586
269 10/7/2020 21:15 7.448 84.015
270 10/7/2020 22:15 5.698 80.893
271 10/7/2020 23:15 4.797 76.521
272 11/7/2020 0:00 4.486 50.497
273 11/7/2020 0:15 4.642 50.497
274 11/7/2020 1:15 8.348 84.083
275 11/7/2020 2:15 5.57 80.004
276 11/7/2020 3:15 4.616 75.346
277 11/7/2020 4:15 5.954 76.17
278 11/7/2020 5:15 7.924 83.818
279 11/7/2020 6:15 5.57 79.642
280 11/7/2020 7:15 4.486 72.445
281 11/7/2020 8:15 5.928 81.5
282 11/7/2020 9:15 7.397 83.745
283 11/7/2020 10:15 5.442 78.689
284 11/7/2020 11:15 4.564 73.365
285 11/7/2020 12:15 5.39 59.375
286 11/7/2020 13:15 8.472 83.179
287 11/7/2020 14:15 5.775 79.39
288 11/7/2020 15:15 5.442 77.461
289 11/7/2020 16:15 5.236 76.383
290 11/7/2020 17:15 7.974 82.777
291 11/7/2020 18:15 5.672 78.347
292 11/7/2020 19:15 5.442 77.558
293 11/7/2020 20:15 5.055 75.609
294 11/7/2020 21:15 7.397 82.319
295 11/7/2020 22:15 5.698 79.455
296 11/7/2020 23:15 4.823 75.678
297 12/7/2020 0:00 4.33 48.52
298 12/7/2020 0:15 4.356 49.584
299 12/7/2020 1:15 8.622 82.833
300 12/7/2020 2:15 5.877 80.486
301 12/7/2020 3:15 5.004 76.853
302 12/7/2020 4:15 4.33 48.52
303 12/7/2020 5:15 8.273 83.273
304 12/7/2020 6:15 5.57 79.882
305 12/7/2020 7:15 4.512 73.702
306 12/7/2020 8:15 6.081 81.853
307 12/7/2020 9:15 7.699 83.557
308 12/7/2020 10:15 5.596 79.118
309 12/7/2020 11:15 4.771 74.756
310 12/7/2020 12:15 4.667 48.762
311 12/7/2020 13:15 8.746 82.497
312 12/7/2020 14:15 5.493 78.523
313 12/7/2020 15:15 5.493 76.937
314 12/7/2020 16:15 5.544 76.392
315 12/7/2020 17:15 8.373 82.595
316 12/7/2020 18:15 5.903 79.796
317 12/7/2020 19:15 5.339 78.067
318 12/7/2020 20:15 4.486 72.18
319 12/7/2020 21:15 6.818 82.269
320 12/7/2020 22:15 5.596 79.118
321 12/7/2020 23:15 4.693 75.415
322 07/13/20 12:00:00 AM 3.728 48.031
323 07/13/20 12:15:24 AM 5.159 56.484
324 07/13/20 01:15:24 AM 8.074 82.772
325 07/13/20 02:15:24 AM 5.826 80.686
326 07/13/20 03:15:24 AM 4.642 75.227
327 07/13/20 04:15:24 AM 6.081 81.42
328 07/13/20 05:15:24 AM 7.372 82.968
329 07/13/20 06:15:24 AM 5.365 78.914
330 07/13/20 07:15:24 AM 4.278 48.031
331 07/13/20 08:15:24 AM 4.538 75.474
332 07/13/20 09:15:24 AM 8.348 83.098
333 07/13/20 10:15:24 AM 3.728 48.486
334 07/13/20 11:15:24 AM 4.693 82.601
335 07/13/20 12:15:24 PM 4.121 79.354
336 07/13/20 01:15:24 PM 7.498 86.958
337 07/13/20 02:15:24 PM 5.365 80.331
338 07/13/20 03:15:24 PM 5.493 79.708
339 07/13/20 04:15:24 PM 5.493 79.708
340 07/13/20 05:15:24 PM 8.298 85.587
341 07/13/20 06:15:24 PM 6.107 82
342 07/13/20 07:15:24 PM 5.903 80.42
343 07/13/20 08:15:24 PM 5.055 76.668
344 07/13/20 09:15:24 PM 6.792 83.675
345 07/13/20 10:15:24 PM 5.647 80.632
346 07/13/20 11:15:24 PM 4.771 75.725
347 07/14/20 12:00:00 AM 2.963 47.64
348 07/14/20 12:15:24 AM 5.081 56.013
349 07/14/20 01:15:24 AM 8.248 84.563
350 07/14/20 02:15:24 AM 5.979 81.64
351 07/14/20 03:15:24 AM 5.004 76.629
352 07/14/20 04:15:24 AM 4.46 59.29
353 07/14/20 05:15:24 AM 8.472 84.461
354 07/14/20 06:15:24 AM 5.954 81.287
355 07/14/20 07:15:24 AM 5.004 76.629
356 07/14/20 08:15:24 AM 4.875 53.256
357 07/14/20 09:15:24 AM 8.223 84.467
358 07/14/20 10:15:24 AM 5.775 79.806
359 07/14/20 11:15:24 AM 4.199 55.481
360 07/14/20 12:15:24 PM 2.989 68.716
361 07/14/20 01:15:24 PM 5.647 82.403
362 07/14/20 02:15:24 PM 3.912 55.124
363 07/14/20 03:15:24 PM 2.963 47.64
364 07/14/20 04:15:24 PM 5.236 77.976
365 07/14/20 05:15:24 PM 7.648 84.195
366 07/14/20 06:15:24 PM 5.928 80.945
367 07/14/20 07:15:24 PM 5.621 79.23
368 07/14/20 08:15:24 PM 5.159 76.836
369 07/14/20 09:15:24 PM 7.498 83.216
370 07/14/20 10:15:24 PM 6.03 81.144
371 07/14/20 11:15:24 PM 4.564 75.198
372 07/15/20 12:00:00 AM 3.281 42.12
373 07/15/20 12:15:24 AM 6.056 81.564
374 07/15/20 01:15:24 AM 7.673 83.382
375 07/15/20 02:15:24 AM 5.724 79.993
376 07/15/20 03:15:24 AM 4.616 74.888
377 07/15/20 04:15:24 AM 6.183 81.922
378 07/15/20 05:15:24 AM 7.573 83.473
379 07/15/20 06:15:24 AM 5.133 77.986
380 07/15/20 07:15:24 AM 4.538 49.938
381 07/15/20 08:15:24 AM 4.797 76.921
382 07/15/20 09:15:24 AM 7.347 83.137
383 07/15/20 10:15:24 AM 5.442 42.12
384 07/15/20 11:15:24 AM 3.281 70.506
385 07/15/20 12:15:24 PM 3.413 50.983
386 07/15/20 01:15:24 PM 7.673 86.958
387 07/15/20 02:15:24 PM 6.158 82.301
388 07/15/20 03:15:24 PM 5.928 81.15
389 07/15/20 04:15:24 PM 5.672 78.668
390 07/15/20 05:15:24 PM 8.373 85.694
391 07/15/20 06:15:24 PM 6.107 81.926
392 07/15/20 07:15:24 PM 5.287 77.971
393 07/15/20 08:15:24 PM 4.642 69.116
394 07/15/20 09:15:24 PM 7.924 84.669
395 07/15/20 10:15:24 PM 6.107 81.633
396 07/15/20 11:15:24 PM 5.287 77.381
397 07/16/20 12:00:00 AM 2.91 53.101
398 07/16/20 12:15:24 AM 4.564 68.589
399 07/16/20 01:15:24 AM 8.074 84.764
400 07/16/20 02:15:24 AM 5.775 80.494
401 07/16/20 03:15:24 AM 4.797 74.246
402 07/16/20 04:15:24 AM 6.005 80.608
403 07/16/20 05:15:24 AM 7.648 84.675
404 07/16/20 06:15:24 AM 5.39 78.165
405 07/16/20 07:15:24 AM 4.59 59.15
406 07/16/20 08:15:24 AM 5.107 77.117
407 07/16/20 09:15:24 AM 6.488 83.003
408 07/16/20 10:15:24 AM 5.262 77.432
409 07/16/20 11:15:24 AM 3.938 77.427
410 07/16/20 12:15:24 PM 2.91 61.928
411 07/16/20 01:15:24 PM 7.699 87.711
412 07/16/20 02:15:24 PM 4.382 68.17
413 07/16/20 03:15:24 PM 4.823 80.244
414 07/16/20 04:15:24 PM 4.538 53.101
415 07/16/20 05:15:24 PM 8.87 86.249
416 07/16/20 06:15:24 PM 6.234 82.61
417 07/16/20 07:15:24 PM 5.698 79.873
418 07/16/20 08:15:24 PM 4.719 74.046
419 07/16/20 09:15:24 PM 7.07 83.935
420 07/16/20 10:15:24 PM 5.749 80.431
421 07/16/20 11:15:24 PM 4.745 74.077
422 07/17/20 12:00:00 AM 4.356 44.863
423 07/17/20 12:15:24 AM 5.979 76.254
424 07/17/20 01:15:24 AM 7.974 84.377
425 07/17/20 02:15:24 AM 5.544 78.789
426 07/17/20 03:15:24 AM 4.59 71.404
427 07/17/20 04:15:24 AM 5.877 81.084
428 07/17/20 05:15:24 AM 7.272 83.929
429 07/17/20 06:15:24 AM 5.519 79.182
430 07/17/20 07:15:24 AM 4.356 60.754
431 07/17/20 08:15:24 AM 5.081 78.041
432 07/17/20 09:15:24 AM 6.969 83.669
433 07/17/20 10:15:24 AM 5.339 78.537
434 07/17/20 11:15:24 AM 6.056 44.863
435 07/17/20 12:15:24 PM 4.564 80.019
436 07/17/20 01:15:24 PM 7.07 85.392
437 07/17/20 02:15:24 PM 4.59 72.047
438 07/17/20 03:15:24 PM 4.564 72.673
439 07/17/20 04:15:24 PM 5.672 79.935
440 07/17/20 05:15:24 PM 8.248 84.563
441 07/17/20 06:15:24 PM 5.928 81.081
442 07/17/20 07:15:24 PM 5.596 79.062
443 07/17/20 08:15:24 PM 5.055 76.062
444 07/17/20 09:15:24 PM 7.171 83.228
445 07/17/20 10:15:24 PM 5.519 79.296
446 07/17/20 11:15:24 PM 4.642 74.162
447 07/18/20 12:00:00 AM 4.33 57.696
448 07/18/20 12:15:24 AM 5.8 71.591
449 07/18/20 01:15:24 AM 7.974 83.817
450 07/18/20 02:15:24 AM 5.749 80.367
451 07/18/20 03:15:24 AM 4.745 74.871
452 07/18/20 04:15:24 AM 5.081 57.696
453 07/18/20 05:15:24 AM 7.974 83.726
454 07/18/20 06:15:24 AM 5.672 80.309
455 07/18/20 07:15:24 AM 4.33 69.884
456 07/18/20 08:15:24 AM 5.236 78.283
457 07/18/20 09:15:24 AM 6.539 83.001
458 07/18/20 10:15:24 AM 5.313 78.539
459 07/18/20 11:15:24 AM 4.33 69.332
460 07/18/20 12:15:24 PM 6.081 81.004
461 07/18/20 01:15:24 PM 7.974 83.198
462 07/18/20 02:15:24 PM 5.724 79.279
463 07/18/20 03:15:24 PM 5.39 76.586
464 07/18/20 04:15:24 PM 5.03 74.647
465 07/18/20 05:15:24 PM 7.598 82.31
466 07/18/20 06:15:24 PM 5.852 78.652
467 07/18/20 07:15:24 PM 5.287 76.465
468 07/18/20 08:15:24 PM 4.693 72.205
469 07/18/20 09:15:24 PM 6.666 81.822
470 07/18/20 10:15:24 PM 5.979 80.544
471 07/18/20 11:15:24 PM 5.055 75.978
472 07/19/20 12:00:00 AM 4.382 49.574
473 07/19/20 12:15:24 AM 4.382 62.454
474 07/19/20 01:15:24 AM 8.572 83.004
475 07/19/20 02:15:24 AM 5.877 79.798
476 07/19/20 03:15:24 AM 4.849 75.395
477 07/19/20 04:15:24 AM 5.236 59.61
478 07/19/20 05:15:24 AM 7.849 83.117
479 07/19/20 06:15:24 AM 5.287 77.771
480 07/19/20 07:15:24 AM 4.408 49.574
481 07/19/20 08:15:24 AM 4.693 75.856
482 07/19/20 09:15:24 AM 8.472 83.441
483 07/19/20 10:15:24 AM 5.57 79.121
484 07/19/20 11:15:24 AM 4.538 71.55
485 07/19/20 12:15:24 PM 5.8 72.146
486 07/19/20 01:15:24 PM 8.223 82.849
487 07/19/20 02:15:24 PM 5.724 78.828
488 07/19/20 03:15:24 PM 5.262 75.995
489 07/19/20 04:15:24 PM 4.642 71.953
490 07/19/20 05:15:24 PM 6.919 81.734
491 07/19/20 06:15:24 PM 6.081 80.603
492 07/19/20 07:15:24 PM 5.442 77.51
493 07/19/20 08:15:24 PM 4.745 73.568
494 07/19/20 09:15:24 PM 6.691 81.6
495 07/19/20 10:15:24 PM 5.621 78.673
496 07/19/20 11:15:24 PM 4.667 73.646
497 07/20/20 12:00:00 AM 2.883 49.305
498 07/20/20 12:15:24 AM 5.313 60.83
499 07/20/20 01:15:24 AM 7.999 82.45
500 07/20/20 02:15:24 AM 5.928 80.291
501 07/20/20 03:15:24 AM 4.667 74.088
502 07/20/20 04:15:24 AM 6.081 81.141
503 07/20/20 05:15:24 AM 7.322 82.723
504 07/20/20 06:15:24 AM 5.39 78.639
505 07/20/20 07:15:24 AM 4.199 57.212
506 07/20/20 08:15:24 AM 4.745 75.647
507 07/20/20 09:15:24 AM 8.398 82.842
508 07/20/20 10:15:24 AM 3.439 71.024
509 07/20/20 11:15:24 AM 3.938 80.747
510 07/20/20 12:15:24 PM 3.781 78.117
511 07/20/20 01:15:24 PM 6.412 84.897
512 07/20/20 02:15:24 PM 3.649 53.052
513 07/20/20 03:15:24 PM 2.883 52.649
514 07/20/20 04:15:24 PM 5.519 79.826
515 07/20/20 05:15:24 PM 8.049 84.865
516 07/20/20 06:15:24 PM 4.512 49.305
517 07/20/20 07:15:24 PM 5.39 61.764
518 07/20/20 08:15:24 PM 5.749 80.56
519 07/20/20 09:15:24 PM 7.749 83.915
520 07/20/20 10:15:24 PM 5.852 81.363
521 07/20/20 11:15:24 PM 4.9 76.73
522 07/21/20 12:00:00 AM 2.43 47.906
523 07/21/20 12:15:24 AM 4.121 56.046
524 07/21/20 01:15:24 AM 8.373 83.623
525 07/21/20 02:15:24 AM 5.8 81.227
526 07/21/20 03:15:24 AM 4.59 75.118
527 07/21/20 04:15:24 AM 5.903 81.29
528 07/21/20 05:15:24 AM 7.07 83.147
529 07/21/20 06:15:24 AM 5.107 78.039
530 07/21/20 07:15:24 AM 5.647 71.475
531 07/21/20 08:15:24 AM 4.121 69.946
532 07/21/20 09:15:24 AM 7.849 83.463
533 07/21/20 10:15:24 AM 2.43 64.248
534 07/21/20 12:15:24 PM 3.228 59.989
535 07/21/20 01:15:24 PM 6.767 84.219
536 07/21/20 02:15:24 PM 3.386 47.906
537 07/21/20 03:15:24 PM 3.518 67.891
538 07/21/20 04:15:24 PM 5.365 77.566
539 07/21/20 05:15:24 PM 7.498 83.922
540 07/21/20 06:15:24 PM 6.107 75.397
541 07/21/20 07:15:24 PM 6.03 79.546
542 07/21/20 08:15:24 PM 5.262 75.705
543 07/21/20 09:15:24 PM 7.171 82.893
544 07/21/20 10:15:24 PM 6.081 80.669
545 07/21/20 11:15:24 PM 5.055 74.906
546 07/22/20 12:00:00 AM 2.989 32.457
547 07/22/20 12:15:24 AM 4.538 50.855
548 07/22/20 01:15:24 AM 8.398 83.356
549 07/22/20 02:15:24 AM 6.209 80.928
550 07/22/20 03:15:24 AM 5.159 75.924
551 07/22/20 04:15:24 AM 4.616 49.788
552 07/22/20 05:15:24 AM 8.248 83.449
553 07/22/20 06:15:24 AM 6.234 81.411
554 07/22/20 07:15:24 AM 5.03 75.023
555 07/22/20 08:15:24 AM 5.339 59.776
556 07/22/20 09:15:24 AM 8.074 83.368
557 07/22/20 10:15:24 AM 5.184 32.457
558 07/22/20 11:15:24 AM 2.989 52.8
559 07/22/20 12:15:24 PM 3.36 75.091
560 07/22/20 01:15:24 PM 6.285 83.012
561 07/22/20 02:15:24 PM 3.465 75.302
562 07/22/20 03:15:24 PM 4.382 76.226
563 07/22/20 04:15:24 PM 4.875 77.812
564 07/22/20 05:15:24 PM 7.12 83.402
565 07/22/20 06:15:24 PM 6.132 81.346
566 07/22/20 07:15:24 PM 5.416 77.084
567 07/22/20 08:15:24 PM 4.59 71.791
568 07/22/20 09:15:24 PM 8.323 83.898
569 07/22/20 10:15:24 PM 6.107 81.633
570 07/22/20 11:15:24 PM 5.287 77.333
571 07/23/20 12:00:00 AM 2.91 49.375
572 07/23/20 12:15:24 AM 4.408 68.791
573 07/23/20 01:15:24 AM 8.746 84.166
574 07/23/20 02:15:24 AM 5.954 78.975
575 07/23/20 03:15:24 AM 5.236 77.482
576 07/23/20 04:15:24 AM 4.434 61.334
577 07/23/20 05:15:24 AM 8.448 83.894
578 07/23/20 06:15:24 AM 6.03 80.157
579 07/23/20 07:15:24 AM 5.081 76.401
580 07/23/20 08:15:24 AM 4.564 49.375
581 07/23/20 09:15:24 AM 8.223 84.18
582 07/23/20 10:15:24 AM 6.005 80.349
583 07/23/20 11:15:24 AM 3.281 70.243
584 07/23/20 12:15:24 PM 3.492 74.392
585 07/23/20 01:15:24 PM 6.336 83.69
586 07/23/20 02:15:24 PM 2.91 55.284
587 07/23/20 03:15:24 PM 3.465 73.56
588 07/23/20 04:15:24 PM 6.31 81.478
589 07/23/20 05:15:24 PM 8.721 84.072
590 07/23/20 06:15:24 PM 5.21 54.976
591 07/23/20 07:15:24 PM 5.877 81.292
592 07/23/20 08:15:24 PM 4.771 75.929
593 07/23/20 09:15:24 PM 6.843 83.326
594 07/23/20 10:15:24 PM 6.107 82.075
595 07/23/20 11:15:24 PM 4.978 76.993
596 07/24/20 12:00:00 AM 4.069 47.557
597 07/24/20 12:15:24 AM 4.225 48.512
598 07/24/20 01:15:24 AM 8.248 83.808
599 07/24/20 02:15:24 AM 5.8 80.954
600 07/24/20 03:15:24 AM 4.304 72.593
601 07/24/20 04:15:24 AM 5.339 79.426
602 07/24/20 05:15:24 AM 6.564 82.918
603 07/24/20 06:15:24 AM 4.978 77.951
604 07/24/20 07:15:24 AM 5.979 82.233
605 07/24/20 08:15:24 AM 4.304 47.557
606 07/24/20 09:15:24 AM 7.246 83.484
607 07/24/20 10:15:24 AM 5.21 78.548
608 07/24/20 11:15:24 AM 4.069 78.865
609 07/24/20 12:15:24 PM 4.069 79.027
610 07/24/20 01:15:24 PM 6.666 84.892
611 07/24/20 02:15:24 PM 4.46 71.185
612 07/24/20 03:15:24 PM 4.173 64.697
613 07/24/20 04:15:24 PM 6.056 81.708
614 07/24/20 05:15:24 PM 8.771 84.85
615 07/24/20 06:15:24 PM 6.081 79.966
616 07/24/20 07:15:24 PM 5.724 80.497
617 07/24/20 08:15:24 PM 4.797 76.347
618 07/24/20 09:15:24 PM 6.868 83.673
619 07/24/20 10:15:24 PM 5.621 80.376
620 07/24/20 11:15:24 PM 4.642 75.781
621 07/25/20 12:00:00 AM 2.35 46.49
622 07/25/20 12:15:24 AM 4.693 54.03
623 07/25/20 01:15:24 AM 8.198 84.275
624 07/25/20 02:15:24 AM 5.775 75.977
625 07/25/20 03:15:24 AM 5.03 78.046
626 07/25/20 04:15:24 AM 4.121 52.195
627 07/25/20 05:15:24 AM 8.273 84.273
628 07/25/20 06:15:24 AM 6.056 82.306
629 07/25/20 07:15:24 AM 4.642 75.822
630 07/25/20 08:15:24 AM 5.979 81.285
631 07/25/20 09:15:24 AM 7.523 84.013
632 07/25/20 10:15:24 AM 5.826 80.952
633 07/25/20 11:15:24 AM 4.667 75.223
634 07/25/20 12:15:24 PM 4.642 52.288
635 07/25/20 01:15:24 PM 8.522 83.618
636 07/25/20 02:15:24 PM 5.621 78.619
637 07/25/20 03:15:24 PM 5.03 75.898
638 07/25/20 04:15:24 PM 4.642 71.953
639 07/25/20 05:15:24 PM 7.246 82.726
640 07/25/20 06:15:24 PM 5.39 62.615
641 07/25/20 07:15:24 PM 5.724 79.993
642 07/25/20 08:15:24 PM 4.745 75.728
643 07/25/20 09:15:24 PM 2.35 62.689
644 07/25/20 10:15:24 PM 2.67 46.49
645 07/25/20 11:15:24 PM 3.597 54.394
646 07/26/20 12:00:00 AM 3.912 50.297
647 07/26/20 12:15:24 AM 5.339 65.999
648 07/26/20 01:15:24 AM 7.322 83.658
649 07/26/20 02:15:24 AM 5.724 81.583
650 07/26/20 03:15:24 AM 3.912 66.823
651 07/26/20 04:15:24 AM 4.719 77.113
652 07/26/20 05:15:24 AM 8.597 83.889
653 07/26/20 06:15:24 AM 5.519 80.511
654 07/26/20 07:15:24 AM 4.719 55.438
655 07/26/20 08:15:24 AM 4.016 71.61
656 07/26/20 09:15:24 AM 7.598 84.011
657 07/26/20 10:15:24 AM 5.442 79.892
658 07/26/20 11:15:24 AM 4.147 55.248
659 07/26/20 12:15:24 PM 5.287 78.383
660 07/26/20 01:15:24 PM 7.171 83.228
661 07/26/20 02:15:24 PM 5.928 80.548
662 07/26/20 03:15:24 PM 4.797 74.827
663 07/26/20 04:15:24 PM 4.278 50.297
664 07/26/20 05:15:24 PM 8.572 83.175
665 07/26/20 06:15:24 PM 5.775 70.932
666 07/26/20 07:15:24 PM 5.442 77.607
667 07/26/20 08:15:24 PM 4.46 71.729
668 07/26/20 09:15:24 PM 8.795 83.342
669 07/26/20 10:15:24 PM 6.03 80.805
670 07/26/20 11:15:24 PM 4.926 76.682
671 07/27/20 12:00:00 AM 2.963 50.245
672 07/27/20 12:15:24 AM 4.408 50.245
673 07/27/20 01:15:24 AM 7.974 83.636
674 07/27/20 02:15:24 AM 6.056 81.708
675 07/27/20 03:15:24 AM 4.616 75.307
676 07/27/20 04:15:24 AM 5.8 75.931
677 07/27/20 05:15:24 AM 7.673 83.646
678 07/27/20 06:15:24 AM 5.826 80.818
679 07/27/20 07:15:24 AM 4.095 68.598
680 07/27/20 08:15:24 AM 4.797 76.741
681 07/27/20 09:15:24 AM 8.597 83.616
682 07/27/20 10:15:24 AM 2.963 69.75
683 07/27/20 11:15:24 AM 4.616 81.788
684 07/27/20 12:15:24 PM 3.754 79.498
685 07/27/20 01:15:24 PM 6.893 86.486
686 07/27/20 02:15:24 PM 5.775 83.198
687 07/27/20 03:15:24 PM 4.564 76.204
688 07/27/20 04:15:24 PM 4.823 54.173
689 07/27/20 05:15:24 PM 8.597 85.584
690 07/27/20 06:15:24 PM 6.209 83.435
691 07/27/20 07:15:24 PM 5.442 79.953
692 07/27/20 08:15:24 PM 4.408 74.265
693 07/27/20 09:15:24 PM 8.845 84.849
694 07/27/20 10:15:24 PM 5.698 81.801
695 07/27/20 11:15:24 PM 4.486 75.841
696 07/28/20 12:00:00 AM 3.702 49.567
697 07/28/20 12:15:24 AM 6.03 82.307
698 07/28/20 01:15:24 AM 7.473 84.389
699 07/28/20 02:15:24 AM 5.596 81.519
700 07/28/20 03:15:24 AM 3.964 67.53
701 07/28/20 04:15:24 AM 4.823 78.117
702 07/28/20 05:15:24 AM 8.795 84.453
703 07/28/20 06:15:24 AM 6.107 83.269
704 07/28/20 07:15:24 AM 4.147 73.015
705 07/28/20 08:15:24 AM 4.745 77.825
706 07/28/20 09:15:24 AM 8.547 84.362
707 07/28/20 10:15:24 AM 5.698 81.513
708 07/28/20 11:15:24 AM 4.278 77.252
709 07/28/20 12:15:24 PM 4.121 77.985
710 07/28/20 01:15:24 PM 6.539 84.796
711 07/28/20 02:15:24 PM 3.702 49.567
712 07/28/20 03:15:24 PM 3.781 50.027
713 07/28/20 04:15:24 PM 4.849 73.355
714 07/28/20 05:15:24 PM 9.167 85.686
715 07/28/20 06:15:24 PM 6.056 79.137
716 07/28/20 07:15:24 PM 5.467 78.419
717 07/28/20 08:15:24 PM 4.642 72.039
718 07/28/20 09:15:24 PM 8.944 85.051
719 07/28/20 10:15:24 PM 5.21 56.229
720 07/28/20 11:15:24 PM 5.416 78.53
721 07/29/20 12:00:00 AM 3.307 47.198
722 07/29/20 12:15:24 AM 4.408 64.581
723 07/29/20 01:15:24 AM 8.373 84.463
724 07/29/20 02:15:24 AM 6.234 81.845
725 07/29/20 03:15:24 AM 4.849 74.598
726 07/29/20 04:15:24 AM 6.209 81.7
727 07/29/20 05:15:24 AM 7.498 83.922
728 07/29/20 06:15:24 AM 5.775 80.302
729 07/29/20 07:15:24 AM 4.408 56.471
730 07/29/20 08:15:24 AM 4.771 74.868
731 07/29/20 09:15:24 AM 8.448 84.269
732 07/29/20 10:15:24 AM 6.005 81.495
733 07/29/20 11:15:24 AM 3.518 78.702
734 07/29/20 12:15:24 PM 3.859 58.483
735 07/29/20 01:15:24 PM 7.07 86.837
736 07/29/20 02:15:24 PM 3.307 50.363
737 07/29/20 03:15:24 PM 4.538 79.264
738 07/29/20 04:15:24 PM 3.307 47.198
739 07/29/20 05:15:24 PM 4.823 80.06
740 07/29/20 06:15:24 PM 3.781 77.444
741 07/29/20 07:15:24 PM 5.416 81.045
742 07/29/20 08:15:24 PM 4.408 49.53
743 07/29/20 09:15:24 PM 4.693 76.021
744 07/29/20 10:15:24 PM 5.928 79.495
745 07/29/20 11:15:24 PM 4.486 74.868
746 07/30/20 12:00:00 AM 2.857 56.755
747 07/30/20 12:15:24 AM 5.672 81.444
748 07/30/20 01:15:24 AM 4.926 76.594
749 07/30/20 02:15:24 AM 5.004 56.755
750 07/30/20 03:15:24 AM 4.667 76.536
751 07/30/20 04:15:24 AM 5.8 82.016
752 07/30/20 05:15:24 AM 4.875 76.867
753 07/30/20 06:15:24 AM 6.183 83.435
754 07/30/20 07:15:24 AM 4.121 70.452
755 07/30/20 08:15:24 AM 4.771 77.246
756 07/30/20 09:15:24 AM 4.952 76.591
757 07/30/20 10:15:24 AM 5.107 57.938
758 07/30/20 11:15:24 AM 2.857 74.725
759 07/30/20 12:15:24 PM 4.719 81.43
760 07/30/20 01:15:24 PM 3.754 77.826
761 07/30/20 02:15:24 PM 3.413 75.772
762 07/30/20 03:15:24 PM 5.852 82.316
763 07/30/20 04:15:24 PM 4.952 77.321
764 07/30/20 05:15:24 PM 2.989 67.886
765 07/30/20 06:15:24 PM 4.225 78.638
766 07/30/20 07:15:24 PM 3.571 77.513
767 07/30/20 08:15:24 PM 5.133 79.915
768 07/30/20 09:15:24 PM 6.615 84.505
769 07/30/20 10:15:24 PM 4.408 74.442
770 07/30/20 11:15:24 PM 6.107 83.269
771 07/31/20 12:00:00 AM 3.122 49.92
772 07/31/20 12:15:24 AM 4.356 74.701
773 07/31/20 01:15:24 AM 5.724 81.799
774 07/31/20 02:15:24 AM 4.225 72.546
775 07/31/20 03:15:24 AM 5.596 81.519
776 07/31/20 04:15:24 AM 3.886 64.947
777 07/31/20 05:15:24 AM 6.463 82.922
778 07/31/20 06:15:24 AM 4.251 73.283
779 07/31/20 07:15:24 AM 5.647 81.587
780 07/31/20 08:15:24 AM 3.912 62.025
781 07/31/20 09:15:24 AM 7.673 84.773
782 07/31/20 10:15:24 AM 4.434 74.618
783 07/31/20 11:15:24 AM 5.877 79.095
784 07/31/20 12:15:24 PM 3.122 57.506
785 07/31/20 01:15:24 PM 4.978 79.748
786 07/31/20 02:15:24 PM 3.964 75.391
787 07/31/20 03:15:24 PM 3.676 73.18
788 07/31/20 04:15:24 PM 5.724 78.995
789 07/31/20 05:15:24 PM 3.492 73.177
790 07/31/20 06:15:24 PM 3.492 71.917
791 07/31/20 07:15:24 PM 3.518 49.92
792 07/31/20 08:15:24 PM 4.46 58.623
793 07/31/20 09:15:24 PM 8.323 85.48
794 07/31/20 10:15:24 PM 4.486 60.087
795 07/31/20 11:15:24 PM 5.544 79.409
796 1/8/2020 0:00 4.46 51.671
797 1/8/2020 0:15 4.46 65.557
798 1/8/2020 1:15 8.398 85.164
799 1/8/2020 2:15 4.486 62.817
800 1/8/2020 3:15 5.621 68.882
801 1/8/2020 4:15 4.667 73.95
802 1/8/2020 5:15 8.423 84.958
803 1/8/2020 6:15 5.596 71.043
804 1/8/2020 7:15 4.538 71.998
805 1/8/2020 8:15 5.184 77.93
806 1/8/2020 9:15 8.82 84.849
807 1/8/2020 10:15 4.46 56.989
808 1/8/2020 11:15 5.21 77.341
809 1/8/2020 12:15 4.512 51.671
810 1/8/2020 13:15 8.298 84.273
811 1/8/2020 14:15 4.564 64.114
812 1/8/2020 15:15 6.132 80.534
813 1/8/2020 16:15 5.107 74.711
814 1/8/2020 17:15 9.562 83.675
815 1/8/2020 18:15 4.823 69.604
816 1/8/2020 19:15 5.03 52.696
817 1/8/2020 20:15 5.416 76.583
818 1/8/2020 21:15 9.586 83.767
819 1/8/2020 22:15 4.667 69.403
820 1/8/2020 23:15 5.954 78.427
821 2/8/2020 0:00 4.408 49.445
822 2/8/2020 0:15 4.978 74.256
823 2/8/2020 1:15 9.167 83.965
824 2/8/2020 2:15 4.642 68.809
825 2/8/2020 3:15 5.928 80.418
826 2/8/2020 4:15 4.408 67.323
827 2/8/2020 5:15 8.198 84.181
828 2/8/2020 6:15 5.519 67.716
829 2/8/2020 7:15 4.512 72.06
830 2/8/2020 8:15 5.184 77.83
831 2/8/2020 9:15 8.82 84.259
832 2/8/2020 10:15 4.978 55.553
833 2/8/2020 11:15 5.133 75.969
834 2/8/2020 12:15 4.616 49.445
835 2/8/2020 13:15 8.373 83.623
836 2/8/2020 14:15 4.693 69.745
837 2/8/2020 15:15 5.416 58.151
838 2/8/2020 16:15 5.852 78.018
839 2/8/2020 17:15 8.248 82.765
840 2/8/2020 18:15 4.875 70.366
841 2/8/2020 19:15 4.719 52.888
842 2/8/2020 20:15 6.158 79.301
843 2/8/2020 21:15 7.949 82.861
844 2/8/2020 22:15 4.564 64.07
845 2/8/2020 23:15 5.775 78.879
846 3/8/2020 0:00 2.803 49.515
847 3/8/2020 0:15 4.59 70.694
848 3/8/2020 1:15 8.646 83.614
849 3/8/2020 2:15 4.512 65.843
850 3/8/2020 3:15 5.621 79.004
851 3/8/2020 4:15 4.434 58.512
852 3/8/2020 5:15 8.049 83.634
853 3/8/2020 6:15 4.538 49.515
854 3/8/2020 7:15 4.849 75.085
855 3/8/2020 8:15 5.749 80.177
856 3/8/2020 9:15 9.241 83.777
857 3/8/2020 10:15 4.016 69.04
858 3/8/2020 11:15 3.36 74.204
859 3/8/2020 12:15 2.83 51.071
860 3/8/2020 13:15 9.241 90.073
861 3/8/2020 14:15 3.201 77.692
862 3/8/2020 15:15 3.069 77.705
863 3/8/2020 16:15 2.803 75.091
864 3/8/2020 17:15 8.323 87.717
865 3/8/2020 18:15 4.121 75.409
866 3/8/2020 19:15 3.754 62.564
867 3/8/2020 20:15 5.877 85.006
868 3/8/2020 21:15 7.874 86.959
869 3/8/2020 22:15 3.781 71.434
870 3/8/2020 23:15 5.8 84.909
871 4/8/2020 0:00 2.403 53.958
872 4/8/2020 0:15 4.356 78.521
873 4/8/2020 1:15 8.969 86.599
874 4/8/2020 2:15 4.251 78.427
875 4/8/2020 3:15 3.754 53.958
876 4/8/2020 4:15 5.159 83.057
877 4/8/2020 5:15 9.34 86.48
878 4/8/2020 6:15 4.173 78.129
879 4/8/2020 7:15 4.46 62.982
880 4/8/2020 8:15 4.849 81.632
881 4/8/2020 9:15 9.093 86.248
882 4/8/2020 10:15 2.644 70.988
883 4/8/2020 11:15 2.75 76.883
884 4/8/2020 12:15 2.403 68.732
885 4/8/2020 13:15 7.874 86.838
886 4/8/2020 14:15 4.199 75.795
887 4/8/2020 15:15 3.781 64.044
888 4/8/2020 16:15 4.043 54.993
889 4/8/2020 17:15 8.771 85.474
890 4/8/2020 18:15 4.512 77.181
891 4/8/2020 19:15 4.486 80.646
892 4/8/2020 20:15 4.486 81.938
893 4/8/2020 21:15 7.498 85.282
894 4/8/2020 22:15 4.043 76.478
895 4/8/2020 23:15 5.544 79.945
896 5/8/2020 0:00 3.307 49.464
897 5/8/2020 0:15 4.693 80.504
898 5/8/2020 1:15 9.142 85.469
899 5/8/2020 2:15 4.147 78.334
900 5/8/2020 3:15 4.926 62.123
901 5/8/2020 4:15 5.004 82.51
902 5/8/2020 5:15 9.29 85.467
903 5/8/2020 6:15 4.016 76.962
904 5/8/2020 7:15 5.928 84.242
905 5/8/2020 8:15 4.59 80.512
906 5/8/2020 9:15 7.422 86.601
907 5/8/2020 10:15 3.938 64.293
908 5/8/2020 11:15 3.912 81.409
909 5/8/2020 12:15 3.518 80.904
910 5/8/2020 13:15 8.87 85.473
911 5/8/2020 14:15 4.356 79.679
912 5/8/2020 15:15 4.278 78.069
913 5/8/2020 16:15 4.356 80.278
914 5/8/2020 17:15 8.248 84.962
915 5/8/2020 18:15 4.251 80.472
916 5/8/2020 19:15 3.597 49.464
917 5/8/2020 20:15 5.107 83.39
918 5/8/2020 21:15 9.34 85.36
919 5/8/2020 22:15 4.304 80.159
920 5/8/2020 23:15 3.307 50.669
921 6/8/2020 0:00 2.457 50.15
922 6/8/2020 0:15 5.184 83.556
923 6/8/2020 1:15 9.34 85.254
924 6/8/2020 2:15 3.99 78.659
925 6/8/2020 3:15 4.564 58.873
926 6/8/2020 4:15 4.719 81.854
927 6/8/2020 5:15 8.969 85.259
928 6/8/2020 6:15 3.728 77.174
929 6/8/2020 7:15 5.57 84.816
930 6/8/2020 8:15 3.386 73.349
931 6/8/2020 9:15 7.924 85.38
932 6/8/2020 10:15 2.457 71.323
933 6/8/2020 11:15 2.83 53.01
934 6/8/2020 12:15 3.99 81.893
935 6/8/2020 13:15 8.622 86.023
936 6/8/2020 14:15 2.457 53.412
937 6/8/2020 15:15 2.617 50.15
938 6/8/2020 16:15 2.67 50.929
939 6/8/2020 17:15 9.142 88.267
940 6/8/2020 18:15 4.745 81.021
941 6/8/2020 19:15 3.99 78.247
942 6/8/2020 20:15 5.544 78.099
943 6/8/2020 21:15 7.849 85.918
944 6/8/2020 22:15 3.571 70.333
945 6/8/2020 23:15 5.698 84.814
946 7/8/2020 0:00 3.122 54.72
947 7/8/2020 0:15 4.199 79.125
948 7/8/2020 1:15 8.82 85.581
949 7/8/2020 2:15 4.095 77.889
950 7/8/2020 3:15 5.647 79.999
951 7/8/2020 4:15 4.512 80.267
952 7/8/2020 5:15 8.944 85.365
953 7/8/2020 6:15 3.912 76.239
954 7/8/2020 7:15 5.877 85.105
955 7/8/2020 8:15 4.147 78.489
956 7/8/2020 9:15 8.696 85.475
957 7/8/2020 10:15 3.148 79.107
958 7/8/2020 11:15 3.544 80.647
959 7/8/2020 12:15 3.333 79.588
960 7/8/2020 13:15 8.423 86.96
961 7/8/2020 14:15 4.693 80.892
962 7/8/2020 15:15 4.564 80.388
963 7/8/2020 16:15 3.122 79.549
964 7/8/2020 17:15 9.043 86.84
965 7/8/2020 18:15 3.702 80.699
966 7/8/2020 19:15 3.676 80.575
967 7/8/2020 20:15 4.069 77.746
968 7/8/2020 21:15 8.895 85.799
969 7/8/2020 22:15 4.199 78.077
970 7/8/2020 23:15 3.623 54.72
971 8/8/2020 0:00 3.492 48.729
972 8/8/2020 0:15 5.647 84.25
973 8/8/2020 1:15 8.696 85.582
974 8/8/2020 2:15 4.356 79.335
975 8/8/2020 3:15 3.492 61.573
976 8/8/2020 4:15 5.698 84.814
977 8/8/2020 5:15 8.87 85.799
978 8/8/2020 6:15 4.147 78.858
979 8/8/2020 7:15 4.667 58.036
980 8/8/2020 8:15 4.616 81.505
981 8/8/2020 9:15 8.919 85.472
982 8/8/2020 10:15 4.043 78.655
983 8/8/2020 11:15 4.33 53.037
984 8/8/2020 12:15 5.57 83.803
985 8/8/2020 13:15 8.572 84.956
986 8/8/2020 14:15 4.9 80.812
987 8/8/2020 15:15 4.642 79.311
988 8/8/2020 16:15 4.33 78.114
989 8/8/2020 17:15 9.537 84.534
990 8/8/2020 18:15 5.184 81.974
991 8/8/2020 19:15 5.004 81.344
992 8/8/2020 20:15 4.512 79.21
993 8/8/2020 21:15 9.34 84.246
994 8/8/2020 22:15 4.173 77.881
995 8/8/2020 23:15 3.702 48.729
996 9/8/2020 0:00 3.518 52.787
997 9/8/2020 0:15 5.57 83.98
998 9/8/2020 1:15 9.093 84.844
999 9/8/2020 2:15 4.46 80.395
1000 9/8/2020 3:15 3.597 71.073
1001 9/8/2020 4:15 5.852 85.006
1002 9/8/2020 5:15 8.398 85.373
1003 9/8/2020 6:15 4.069 78.19
1004 9/8/2020 7:15 4.33 53.955
1005 9/8/2020 8:15 4.952 82.209
1006 9/8/2020 9:15 9.29 84.942
1007 9/8/2020 10:15 4.564 80.325
1008 9/8/2020 11:15 3.518 68.569
1009 9/8/2020 12:15 5.544 83.892
1010 9/8/2020 13:15 9.093 84.743
1011 9/8/2020 14:15 4.823 80.121
1012 9/8/2020 15:15 4.486 78.882
1013 9/8/2020 16:15 3.99 75.582
1014 9/8/2020 17:15 9.043 84.253
1015 9/8/2020 18:15 4.434 79.105
1016 9/8/2020 19:15 3.571 66.374
1017 9/8/2020 20:15 5.8 84.154
1018 9/8/2020 21:15 8.448 84.958
1019 9/8/2020 22:15 4.095 78.087
1020 9/8/2020 23:15 4.251 52.787
1021 10/8/2020 0:00 2.724 72.654
1022 10/8/2020 0:15 5.004 82.281
1023 10/8/2020 1:15 9.29 84.942
1024 10/8/2020 2:15 3.912 77.384
1025 10/8/2020 3:15 5.954 85.204
1026 10/8/2020 4:15 4.199 79.404
1027 10/8/2020 5:15 8.622 85.16
1028 10/8/2020 6:15 3.964 77.902
1029 10/8/2020 7:15 5.826 85.007
1030 10/8/2020 8:15 3.938 78.152
1031 10/8/2020 9:15 8.398 85.164
1032 10/8/2020 10:15 3.886 76.411
1033 10/8/2020 11:15 2.724 77.372
1034 10/8/2020 12:15 2.83 75.805
1035 10/8/2020 13:15 8.572 85.161
1036 10/8/2020 14:15 3.807 79.956
1037 10/8/2020 15:15 3.912 79.542
1038 10/8/2020 16:15 4.043 74.35
1039 10/8/2020 17:15 9.586 84.533
1040 10/8/2020 18:15 5.262 80.921
1041 10/8/2020 19:15 5.313 82.041
1042 10/8/2020 20:15 4.434 79.329
1043 10/8/2020 21:15 9.241 84.841
1044 10/8/2020 22:15 4.616 79.955
1045 10/8/2020 23:15 3.728 72.654
1046 11/8/2020 0:00 3.122 55.03
1047 11/8/2020 0:15 5.877 84.523
1048 11/8/2020 1:15 9.266 84.74
1049 11/8/2020 2:15 4.121 78.388
1050 11/8/2020 3:15 5.621 80.062
1051 11/8/2020 4:15 4.173 79.183
1052 11/8/2020 5:15 8.348 85.165
1053 11/8/2020 6:15 3.518 71.061
1054 11/8/2020 7:15 4.849 82.214
1055 11/8/2020 8:15 5.596 78.146
1056 11/8/2020 9:15 9.34 84.941
1057 11/8/2020 10:15 3.964 76.275
1058 11/8/2020 11:15 5.672 78.777
1059 11/8/2020 12:15 3.122 78.843
1060 11/8/2020 13:15 7.974 85.274
1061 11/8/2020 14:15 3.938 80.432
1062 11/8/2020 15:15 3.781 80.568
1063 11/8/2020 16:15 3.938 77.521
1064 11/8/2020 17:15 9.093 84.844
1065 11/8/2020 18:15 4.59 80.768
1066 11/8/2020 19:15 3.702 76.732
1067 11/8/2020 20:15 5.339 73.087
1068 11/8/2020 21:15 8.149 85.272
1069 11/8/2020 22:15 4.173 79.693
1070 11/8/2020 23:15 3.201 55.03
1071 12/8/2020 0:00 3.333 51.544
1072 12/8/2020 0:15 5.416 83.985
1073 12/8/2020 1:15 9.463 84.939
1074 12/8/2020 2:15 4.199 79.75
1075 12/8/2020 3:15 4.849 65.049
1076 12/8/2020 4:15 4.382 80.847
1077 12/8/2020 5:15 8.622 85.057
1078 12/8/2020 6:15 3.938 79.426
1079 12/8/2020 7:15 5.647 84.912
1080 12/8/2020 8:15 3.333 74.379
1081 12/8/2020 9:15 7.924 85.275
1082 12/8/2020 10:15 3.571 81.775
1083 12/8/2020 11:15 3.728 81.02
1084 12/8/2020 12:15 4.043 51.544
1085 12/8/2020 13:15 7.498 87.452
1086 12/8/2020 14:15 3.649 80.391
1087 12/8/2020 15:15 3.413 78.87
1088 12/8/2020 16:15 5.852 85.006
1089 12/8/2020 17:15 8.273 87.082
1090 12/8/2020 18:15 4.616 78.816
1091 12/8/2020 19:15 3.964 72.557
1092 12/8/2020 20:15 5.979 85.204
1093 12/8/2020 21:15 8.522 86.839
1094 12/8/2020 22:15 4.147 76.087
1095 12/8/2020 23:15 5.159 73.082
1096 08/13/20 12:00:00 AM 2.162 47.333
1097 08/13/20 12:15:24 AM 4.797 80.819
1098 08/13/20 01:15:24 AM 9.043 86.599
1099 08/13/20 02:15:24 AM 4.095 75.929
1100 08/13/20 03:15:24 AM 5.877 85.205
1101 08/13/20 04:15:24 AM 4.251 78.172
1102 08/13/20 05:15:24 AM 8.572 86.482
1103 08/13/20 06:15:24 AM 4.147 76.77
1104 08/13/20 07:15:24 AM 5.903 85.105
1105 08/13/20 08:15:24 AM 4.173 76.99
1106 08/13/20 09:15:24 AM 8.448 86.251
1107 08/13/20 10:15:24 AM 2.162 47.333
1108 08/13/20 11:15:24 AM 4.538 83.083
1109 08/13/20 12:15:24 PM 3.465 79.465
1110 08/13/20 01:15:24 PM 9.241 86.599
1111 08/13/20 02:15:24 PM 4.486 77.85
1112 08/13/20 03:15:24 PM 4.069 74.07
1113 08/13/20 04:15:24 PM 3.781 59.96
1114 08/13/20 05:15:24 PM 8.746 86.25
1115 08/13/20 06:15:24 PM 4.33 77.623
1116 08/13/20 07:15:24 PM 4.095 57.261
1117 08/13/20 08:15:24 PM 4.952 81.347
1118 08/13/20 09:15:24 PM 9.192 86.133
1119 08/13/20 10:15:24 PM 4.46 78.512
1120 08/13/20 11:15:24 PM 3.754 55.018
1121 08/14/20 12:00:00 AM 3.518 61.449
1122 08/14/20 12:15:24 AM 5.107 82.052
1123 08/14/20 01:15:24 AM 9.167 86.133
1124 08/14/20 02:15:24 AM 4.095 75.335
1125 08/14/20 03:15:24 AM 5.928 84.906
1126 08/14/20 04:15:24 AM 4.147 76.814
1127 08/14/20 05:15:24 AM 8.472 86.251
1128 08/14/20 06:15:24 AM 3.781 71.461
1129 08/14/20 07:15:24 AM 5.39 83.464
1130 08/14/20 08:15:24 AM 3.597 61.925
1131 08/14/20 09:15:24 AM 7.749 86.141
1132 08/14/20 10:15:24 AM 3.702 63.659
1133 08/14/20 11:15:24 AM 3.544 81.499
1134 08/14/20 12:15:24 PM 3.833 81.831
1135 08/14/20 01:15:24 PM 7.246 86.601
1136 08/14/20 02:15:24 PM 3.597 80.518
1137 08/14/20 03:15:24 PM 4.33 81.662
1138 08/14/20 04:15:24 PM 4.069 81.264
1139 08/14/20 05:15:24 PM 7.849 85.918
1140 08/14/20 06:15:24 PM 4.408 79.501
1141 08/14/20 07:15:24 PM 3.518 61.449
1142 08/14/20 08:15:24 PM 5.313 83.724
1143 08/14/20 09:15:24 PM 9.315 85.906
1144 08/14/20 10:15:24 PM 4.095 77.938
1145 08/14/20 11:15:24 PM 5.184 72.455
1146 08/15/20 12:00:00 AM 3.439 59.458
1147 08/15/20 12:15:24 AM 4.564 80.641
1148 08/15/20 01:15:24 AM 8.994 86.021
1149 08/15/20 02:15:24 AM 4.121 78.543
1150 08/15/20 03:15:24 AM 5.724 83.283
1151 08/15/20 04:15:24 AM 4.434 79.79
1152 08/15/20 05:15:24 AM 8.895 86.021
1153 08/15/20 06:15:24 AM 3.781 75.073
1154 08/15/20 07:15:24 AM 5.313 84.077
1155 08/15/20 08:15:24 AM 3.465 59.458
1156 08/15/20 09:15:24 AM 7.899 86.254
1157 08/15/20 10:15:24 AM 4.121 78.084
1158 08/15/20 11:15:24 AM 5.03 69.063
1159 08/15/20 12:15:24 PM 4.875 81.421
1160 08/15/20 01:15:24 PM 9.586 85.463
1161 08/15/20 02:15:24 PM 5.184 81.828
1162 08/15/20 03:15:24 PM 4.771 80.248
1163 08/15/20 04:15:24 PM 4.304 77.967
1164 08/15/20 05:15:24 PM 9.463 85.252
1165 08/15/20 06:15:24 PM 5.184 81.684
1166 08/15/20 07:15:24 PM 4.564 79.662
1167 08/15/20 08:15:24 PM 3.439 63.82
1168 08/15/20 09:15:24 PM 8.099 85.483
1169 08/15/20 10:15:24 PM 3.938 76.49
1170 08/15/20 11:15:24 PM 5.826 84.715
1171 08/16/20 12:00:00 AM 3.386 49.819
1172 08/16/20 12:15:24 AM 3.859 76.671
1173 08/16/20 01:15:24 AM 8.223 85.375
1174 08/16/20 02:15:24 AM 3.833 76.124
1175 08/16/20 03:15:24 AM 5.262 83.726
1176 08/16/20 04:15:24 AM 3.623 49.819
1177 08/16/20 05:15:24 AM 8.223 85.588
1178 08/16/20 06:15:24 AM 3.386 66.813
1179 08/16/20 07:15:24 AM 4.356 80.783
1180 08/16/20 08:15:24 AM 5.262 84.26
1181 08/16/20 09:15:24 AM 8.646 85.476
1182 08/16/20 10:15:24 AM 3.649 72.696
1183 08/16/20 11:15:24 AM 5.493 84.439
1184 08/16/20 12:15:24 PM 3.912 76.323
1185 08/16/20 01:15:24 PM 8.597 85.265
1186 08/16/20 02:15:24 PM 4.33 78.42
1187 08/16/20 03:15:24 PM 3.781 70.736
1188 08/16/20 04:15:24 PM 4.926 61.959
1189 08/16/20 05:15:24 PM 8.547 85.162
1190 08/16/20 06:15:24 PM 4.667 79.48
1191 08/16/20 07:15:24 PM 3.99 76.105
1192 08/16/20 08:15:24 PM 5.954 84.521
1193 08/16/20 09:15:24 PM 9.66 84.731
1194 08/16/20 10:15:24 PM 4.356 78.521
1195 08/16/20 11:15:24 PM 4.408 55.737
1196 08/17/20 12:00:00 AM 3.702 50.377
1197 08/17/20 12:15:24 AM 4.823 80.818
1198 08/17/20 01:15:24 AM 9.142 84.945
1199 08/17/20 02:15:24 AM 4.512 79.667
1200 08/17/20 03:15:24 AM 3.99 51.472
1201 08/17/20 04:15:24 AM 4.797 80.885
1202 08/17/20 05:15:24 AM 8.994 85.051
1203 08/17/20 06:15:24 AM 4.043 76.737
1204 08/17/20 07:15:24 AM 5.928 85.104
1205 08/17/20 08:15:24 AM 4.095 78.187
1206 08/17/20 09:15:24 AM 8.597 85.37
1207 08/17/20 10:15:24 AM 4.225 78.327
1208 08/17/20 11:15:24 AM 3.781 50.377
1209 08/17/20 12:15:24 PM 5.596 83.628
1210 08/17/20 01:15:24 PM 8.944 86.134
1211 08/17/20 02:15:24 PM 4.251 82.096
1212 08/17/20 03:15:24 PM 4.147 81.125
1213 08/17/20 04:15:24 PM 4.069 77.555
1214 08/17/20 05:15:24 PM 9.043 85.578
1215 08/17/20 06:15:24 PM 4.356 78.893
1216 08/17/20 07:15:24 PM 3.912 51.108
1217 08/17/20 08:15:24 PM 4.9 82.137
1218 08/17/20 09:15:24 PM 9.216 85.685
1219 08/17/20 10:15:24 PM 4.486 80.207
1220 08/17/20 11:15:24 PM 3.702 51.872
1221 08/18/20 12:00:00 AM 2.108 51.082
1222 08/18/20 12:15:24 AM 5.21 83.302
1223 08/18/20 01:15:24 AM 9.389 85.683
1224 08/18/20 02:15:24 AM 4.486 79.905
1225 08/18/20 03:15:24 AM 3.728 51.082
1226 08/18/20 04:15:24 AM 4.978 82.207
1227 08/18/20 05:15:24 AM 9.216 85.685
1228 08/18/20 06:15:24 AM 4.173 78.486
1229 08/18/20 07:15:24 AM 5.339 73.481
1230 08/18/20 08:15:24 AM 4.538 80.771
1231 08/18/20 09:15:24 AM 8.969 85.798
1232 08/18/20 10:15:24 AM 3.439 81.303
1233 08/18/20 11:15:24 AM 2.108 52.132
1234 08/18/20 12:15:24 PM 3.597 63.332
1235 08/18/20 01:15:24 PM 7.372 88.103
1236 08/18/20 02:15:24 PM 3.623 80.897
1237 08/18/20 03:15:24 PM 3.254 79.882
1238 08/18/20 04:15:24 PM 5.39 84.165
1239 08/18/20 05:15:24 PM 12.149 92.193
1240 08/18/20 06:15:24 PM 4.823 82.141
1241 08/18/20 07:15:24 PM 3.754 71.175
1242 08/18/20 08:15:24 PM 5.57 85.21
1243 08/18/20 09:15:24 PM 9.611 87.731
1244 08/18/20 10:15:24 PM 4.382 79.333
1245 08/18/20 11:15:24 PM 4.408 56.444
HOBO refrigerador original
1246 08/21/20 12:00:00 AM 6.107 45.256
1247 08/21/20 06:25:00 PM 13.572 45.256
1248 08/21/20 07:25:00 PM 8.248 63.139
1249 08/21/20 08:25:00 PM 6.209 65.192
1250 08/21/20 09:25:00 PM 6.107 60.952
1251 08/21/20 10:25:00 PM 6.716 68.853
1252 08/21/20 11:25:00 PM 8.572 68.522
1253 08/22/20 12:00:00 AM 6.868 62.906
1254 08/22/20 12:25:00 AM 7.146 69.217
1255 08/22/20 01:25:00 AM 6.919 63.667
1256 08/22/20 02:25:00 AM 6.944 71.547
1257 08/22/20 03:25:00 AM 8.771 67.134
1258 08/22/20 04:25:00 AM 7.171 69.877
1259 08/22/20 05:25:00 AM 6.893 63.794
1260 08/22/20 06:25:00 AM 6.868 68.176
1261 08/22/20 07:25:00 AM 8.572 69.171
1262 08/22/20 08:25:00 AM 7.02 67.126
1263 08/22/20 09:25:00 AM 7.02 74.268
1264 08/22/20 10:25:00 AM 6.868 64.374
1265 08/22/20 11:25:00 AM 8.298 67.004
1266 08/22/20 12:25:00 PM 7.07 65.183
1267 08/22/20 01:25:00 PM 7.045 62.906
1268 08/22/20 02:25:00 PM 7.07 71.615
1269 08/22/20 03:25:00 PM 9.192 67.07
1270 08/22/20 04:25:00 PM 7.397 63.418
1271 08/22/20 05:25:00 PM 7.196 65.036
1272 08/22/20 06:25:00 PM 7.07 63.348
1273 08/22/20 07:25:00 PM 8.696 65.455
1274 08/22/20 08:25:00 PM 7.196 70.525
1275 08/22/20 09:25:00 PM 6.969 64.886
1276 08/22/20 10:25:00 PM 6.994 73.725
1277 08/22/20 11:25:00 PM 9.018 69.164
1278 08/23/20 12:00:00 AM 6.818 59.925
1279 08/23/20 12:25:00 AM 7.246 68.752
1280 08/23/20 01:25:00 AM 6.994 68.239
1281 08/23/20 02:25:00 AM 6.893 62.278
1282 08/23/20 03:25:00 AM 8.323 66.876
1283 08/23/20 04:25:00 AM 7.07 66.249
1284 08/23/20 05:25:00 AM 6.919 63.297
1285 08/23/20 06:25:00 AM 6.818 66.083
1286 08/23/20 07:25:00 AM 8.373 69.257
1287 08/23/20 08:25:00 AM 6.919 66.949
1288 08/23/20 09:25:00 AM 6.919 72.752
1289 08/23/20 10:25:00 AM 6.843 62.786
1290 08/23/20 11:25:00 AM 8.448 67.242
1291 08/23/20 12:25:00 PM 7.146 69.508
1292 08/23/20 01:25:00 PM 7.02 64.612
1293 08/23/20 02:25:00 PM 7.095 68.219
1294 08/23/20 03:25:00 PM 8.771 65.734
1295 08/23/20 04:25:00 PM 7.397 72.169
1296 08/23/20 05:25:00 PM 7.171 70.719
1297 08/23/20 06:25:00 PM 7.07 66.249
1298 08/23/20 07:25:00 PM 8.994 68.442
1299 08/23/20 08:25:00 PM 7.221 59.925
1300 08/23/20 09:25:00 PM 7.07 70.334
1301 08/23/20 10:25:00 PM 6.944 64.325
1302 08/23/20 11:25:00 PM 8.522 66.958
1303 08/24/20 12:00:00 AM 6.107 57.595
1304 08/24/20 12:25:00 AM 7.12 67.954
1305 08/24/20 01:25:00 AM 6.843 62.508
1306 08/24/20 02:25:00 AM 6.767 65.336
1307 08/24/20 03:25:00 AM 8.198 69.489
1308 08/24/20 04:25:00 AM 6.893 65.188
1309 08/24/20 05:25:00 AM 6.716 68.968
1310 08/24/20 06:25:00 AM 6.666 69.547
1311 08/24/20 07:25:00 AM 8.273 71.752
1312 08/24/20 08:25:00 AM 6.818 66.065
1313 08/24/20 09:25:00 AM 6.107 68.05
1314 08/24/20 10:25:00 AM 6.463 69.109
1315 08/24/20 11:25:00 AM 7.999 65.217
1316 08/24/20 12:25:00 PM 6.437 63.097
1317 08/24/20 01:25:00 PM 6.336 64.003
1318 08/24/20 02:25:00 PM 6.361 62.891
1319 08/24/20 03:25:00 PM 7.999 64.486
1320 08/24/20 04:25:00 PM 6.514 61.36
1321 08/24/20 05:25:00 PM 6.158 57.595
1322 08/24/20 06:25:00 PM 6.285 63.191
1323 08/24/20 07:25:00 PM 8.398 63.686
1324 08/24/20 08:25:00 PM 6.564 66.138
1325 08/24/20 09:25:00 PM 6.64 73.918
1326 08/24/20 10:25:00 PM 6.868 60.812
1327 08/24/20 11:25:00 PM 8.646 70.803
08/25/20 12:00:00 AM 6.437 52.707
08/25/20 12:25:00 AM 7.322 72.921
08/25/20 01:25:00 AM 7.02 65.042
08/25/20 02:25:00 AM 7.12 73.119
08/25/20 03:25:00 AM 8.919 69.797
08/25/20 04:25:00 AM 7.297 69.653
08/25/20 05:25:00 AM 7.02 66.561
08/25/20 06:25:00 AM 7.095 73.676
08/25/20 07:25:00 AM 8.795 68.042
08/25/20 08:25:00 AM 7.246 69.915
08/25/20 09:25:00 AM 6.994 62.861
08/25/20 10:25:00 AM 7.272 52.707
08/25/20 11:25:00 AM 8.174 64.952
08/25/20 12:25:00 PM 6.488 65.045
08/25/20 01:25:00 PM 6.437 72.35
08/25/20 02:25:00 PM 6.868 62.083
08/25/20 03:25:00 PM 8.497 69.111
08/25/20 04:25:00 PM 7.272 72.698
08/25/20 05:25:00 PM 7.12 67.025
08/25/20 06:25:00 PM 7.07 62.507
08/25/20 07:25:00 PM 8.646 68.026
08/25/20 08:25:00 PM 7.272 72.601
08/25/20 09:25:00 PM 6.969 65.691
08/25/20 10:25:00 PM 7.045 73.897
08/25/20 11:25:00 PM 8.82 67.507
08/26/20 12:00:00 AM 6.005 48.654
08/26/20 12:25:00 AM 7.272 72.034
08/26/20 01:25:00 AM 6.944 65.313
08/26/20 02:25:00 AM 7.02 73.546
08/26/20 03:25:00 AM 8.87 67.073
08/26/20 04:25:00 AM 7.196 63.23
08/26/20 05:25:00 AM 6.994 69.536
08/26/20 06:25:00 AM 6.919 61.382
08/26/20 07:25:00 AM 8.423 68.319
08/26/20 08:25:00 AM 7.095 68.374
08/26/20 09:25:00 AM 6.919 61.885
08/26/20 10:25:00 AM 6.944 69.594
08/26/20 12:25:00 PM 6.081 65.388
08/26/20 01:25:00 PM 6.005 63.737
08/26/20 02:25:00 PM 8.845 48.654
08/26/20 03:25:00 PM 8.895 58.416
08/26/20 04:25:00 PM 7.523 59.023
08/26/20 05:25:00 PM 6.994 52.104
08/26/20 06:25:00 PM 6.005 54.357
08/26/20 07:25:00 PM 7.623 62.523
08/26/20 08:25:00 PM 6.285 59.725
08/26/20 09:25:00 PM 6.056 69.66
08/26/20 10:25:00 PM 6.488 67.578
08/26/20 11:25:00 PM 8.174 66.867
bo Refrigerador 2◦C - 8◦C
Prom: Prom:
Máx.: Máx.: Humedad
Temperatura, Humedad Fecha Tiempo Temp, °C
Temperatura, °C relativa, %
°C relativa, %

5.903 80.742 4.846 70.768

5.903 81.644 4.622 75.478


4.823 80.183 4.485 70.546

25.215 94.12 6.622 84.068

8.099 93.649 5.408 79.848


8.124 86.368 5.866 79.28

8.746 84.875 6.133 77.357


8.423 87.839 5.51 77.322

8.298 86.373 5.366 73.419


13.091 84.695 6.035 73.896
8.099 87.323 5.717 76.304

8.696 87.986 6.015 78.546


8.472 84.083 5.951 76.951

8.746 83.557 5.91 75.29


8.348 86.958 5.777 76.955

8.472 84.563 5.603 73.589


8.373 86.958 5.872 76.012

8.87 87.711 5.628 76.585


8.248 85.392 5.799 77.017
7.974 83.817 5.836 77.254

8.572 83.441 5.815 75.408


8.398 84.897 5.494 73.945

8.373 84.219 5.499 74.706


8.398 83.898 5.64 73.044

8.746 84.18 5.643 75.101


8.771 84.892 5.591 76.66

8.522 84.275 5.457 72.309


8.795 84.011 5.771 74.889
8.845 86.486 5.705 77.378

9.167 85.686 5.754 76.099


8.448 86.837 5.255 73.659

6.615 84.505 4.778 76.31


8.323 85.48 4.868 73.219

9.586 85.164 5.98 72.956


9.167 84.259 5.946 72.602

9.241 90.073 5.345 74.947


9.34 86.838 5.227 76.719
9.34 86.601 5.439 77.804

9.34 88.267 5.148 75.317


9.043 86.96 5.287 80.213

9.537 85.799 5.706 77.576


9.29 85.373 5.636 77.992

9.586 85.204 5.461 80.561


9.34 85.274 5.473 79.231

9.463 87.452 5.424 79.556


9.241 86.599 5.441 77.034
9.315 86.601 5.31 79.1

9.586 86.254 5.649 79.598


9.66 85.588 5.456 77.03

9.216 86.134 5.565 76.79


12.149 92.193 5.563 77.935

gerador original HOBO re


13.572 68.853 8.237 61.986 08/21/20 12:00:00 AM
08/21/20 06:25:00 PM 16.728
08/21/20 07:25:00 PM 8.248
08/21/20 08:25:00 PM 6.158
08/21/20 09:25:00 PM 6.056
08/21/20 10:25:00 PM 6.691
08/21/20 11:25:00 PM 8.572
9.192 74.268 7.475 67.404 08/22/20 12:00:00 AM
08/22/20 12:25:00 AM 7.12
08/22/20 01:25:00 AM 6.893
08/22/20 02:25:00 AM 6.893
08/22/20 03:25:00 AM 8.771
08/22/20 04:25:00 AM 7.12
08/22/20 05:25:00 AM 6.868
08/22/20 06:25:00 AM 6.818
08/22/20 07:25:00 AM 8.547
08/22/20 08:25:00 AM 6.969
08/22/20 09:25:00 AM 6.944
08/22/20 10:25:00 AM 6.818
08/22/20 11:25:00 AM 8.273
08/22/20 12:25:00 PM 7.045
08/22/20 01:25:00 PM 7.02
08/22/20 02:25:00 PM 7.02
08/22/20 03:25:00 PM 9.167
08/22/20 04:25:00 PM 7.372
08/22/20 05:25:00 PM 7.146
08/22/20 06:25:00 PM 7.02
08/22/20 07:25:00 PM 8.671
08/22/20 08:25:00 PM 7.146
08/22/20 09:25:00 PM 6.919
08/22/20 10:25:00 PM 6.969
08/22/20 11:25:00 PM 8.994
8.994 72.752 7.424 66.998 08/23/20 12:00:00 AM
08/23/20 12:25:00 AM 7.221
08/23/20 01:25:00 AM 6.944
08/23/20 02:25:00 AM 6.868
08/23/20 03:25:00 AM 8.298
08/23/20 04:25:00 AM 7.02
08/23/20 05:25:00 AM 6.893
08/23/20 06:25:00 AM 6.767
08/23/20 07:25:00 AM 8.348
08/23/20 08:25:00 AM 6.868
08/23/20 09:25:00 AM 6.843
08/23/20 10:25:00 AM 6.818
08/23/20 11:25:00 AM 8.423
08/23/20 12:25:00 PM 7.07
08/23/20 01:25:00 PM 6.969
08/23/20 02:25:00 PM 7.045
08/23/20 03:25:00 PM 8.721
08/23/20 04:25:00 PM 7.322
08/23/20 05:25:00 PM 7.095
08/23/20 06:25:00 PM 6.994
08/23/20 07:25:00 PM 8.969
08/23/20 08:25:00 PM 7.171
08/23/20 09:25:00 PM 7.02
08/23/20 10:25:00 PM 6.893
08/23/20 11:25:00 PM 8.472
8.646 73.918 7.003 65.882 08/24/20 12:00:00 AM
08/24/20 12:25:00 AM 7.045
08/24/20 01:25:00 AM 6.818
08/24/20 02:25:00 AM 6.716
08/24/20 03:25:00 AM 8.149
08/24/20 04:25:00 AM 6.818
08/24/20 05:25:00 AM 6.666
08/24/20 06:25:00 AM 6.615
08/24/20 07:25:00 AM 8.223
08/24/20 08:25:00 AM 6.742
08/24/20 09:25:00 AM 6.209
08/24/20 10:25:00 AM 6.285
08/24/20 11:25:00 AM 7.799
08/24/20 12:25:00 PM 6.336
08/24/20 01:25:00 PM 6.234
08/24/20 02:25:00 PM 6.285
08/24/20 03:25:00 PM 7.874
08/24/20 04:25:00 PM 6.412
08/24/20 05:25:00 PM 6.107
08/24/20 06:25:00 PM 6.183
08/24/20 07:25:00 PM 8.248
08/24/20 08:25:00 PM 6.463
08/24/20 09:25:00 PM 6.564
08/24/20 10:25:00 PM 6.818
08/24/20 11:25:00 PM 8.547
8.919 73.897 7.449 67.824 08/25/20 12:00:00 AM
08/25/20 12:25:00 AM 7.246
08/25/20 01:25:00 AM 6.969
08/25/20 02:25:00 AM 7.07
08/25/20 03:25:00 AM 8.82
08/25/20 04:25:00 AM 7.272
08/25/20 05:25:00 AM 6.969
08/25/20 06:25:00 AM 7.045
08/25/20 07:25:00 AM 8.696
08/25/20 08:25:00 AM 7.171
08/25/20 09:25:00 AM 6.691
08/25/20 10:25:00 AM 7.372
08/25/20 11:25:00 AM 8.074
08/25/20 12:25:00 PM 6.387
08/25/20 01:25:00 PM 6.336
08/25/20 02:25:00 PM 6.818
08/25/20 03:25:00 PM 8.423
08/25/20 04:25:00 PM 7.171
08/25/20 05:25:00 PM 7.02
08/25/20 06:25:00 PM 6.994
08/25/20 07:25:00 PM 8.572
08/25/20 08:25:00 PM 7.196
08/25/20 09:25:00 PM 6.919
08/25/20 10:25:00 PM 6.969
08/25/20 11:25:00 PM 8.771
8.895 73.546 7.199 63.84 08/26/20 12:00:00 AM
08/26/20 12:25:00 AM 7.171
08/26/20 01:25:00 AM 6.868
08/26/20 02:25:00 AM 6.944
08/26/20 03:25:00 AM 8.82
08/26/20 04:25:00 AM 7.146
08/26/20 05:25:00 AM 6.944
08/26/20 06:25:00 AM 6.893
08/26/20 07:25:00 AM 8.373
08/26/20 08:25:00 AM 7.02
08/26/20 09:25:00 AM 6.868
08/26/20 10:25:00 AM 6.893
08/26/20 12:25:00 PM 5.698
08/26/20 01:25:00 PM 5.672
08/26/20 02:25:00 PM 7.272
08/26/20 03:25:00 PM 7.874
08/26/20 04:25:00 PM 6.26
08/26/20 05:25:00 PM 5.877
08/26/20 06:25:00 PM 6.944
08/26/20 07:25:00 PM 8.323
08/26/20 08:25:00 PM 7.07
08/26/20 09:25:00 PM 6.716
08/26/20 10:25:00 PM 7.12
08/26/20 11:25:00 PM 8.671
Mín: Mín: Máx.: Máx.: Prom: Prom:
HR, % Temperatur Humedad Temperatur Humedad Temperatur Humedad
a, °C relativa, % a, °C relativa, % a, °C relativa, %
HOBO refrigerador PRUEBA
6.056 35.924 16.728 78.298 8.742 67.194
35.924
71.216
72.119
69.256
76.35
78.298
6.818 71.565 9.167 81.659 7.438 76.106
76.437
71.941
78.838
77.579
77.24
72.503
75.982
79.532
74.849
81.659
73.197
77.27
73.3
74.083
79.114
77.914
71.565
73.149
71.801
75.677
78.051
73.284
81.44
80.139
6.767 70.583 8.969 80.42 7.377 76.284
78.203
76.231
72.252
77.118
74.456
74.664
74.528
79.734
75.181
80.42
73.609
77.824
77.294
73.141
78.327
76.257
79.874
78.486
74.574
79.192
70.583
78.222
73.288
77.351
6.107 68.029 8.547 82.359 6.923 75.036
75.999
74.111
74.309
79.876
73.965
77.189
77.689
82.359
74.569
74.986
77.277
74.942
73.403
73.975
72.039
74.575
69.425
68.029
70.808
73.989
73.695
80.973
72.167
80.504
6.336 60.024 8.82 81.806 7.374 76.667
80.133
73.379
80.404
79.89
78.806
74.577
81.435
78.398
77.333
71.16
60.024
75.747
75.201
79.702
74.829
79.116
80.074
75.202
72.294
78.133
80.009
74.134
81.806
78.224
5.672 59.76 8.82 81.157 7.106 72.968
79.516
73.85
81.157
79.573
75.309
77.258
73.322
78.483
76.357
72.252
77.361
74.898
73.533
61.202
70.273
70.768
65.384
59.76
69.366
67.155
73.871
72.819
74.79
Hobo Testigo 20801500
HOBO Refrigerador
Hobo Testigo 20801500
HOBO Refrigerador
Hobo Testigo 20801500
HOBO Refrigerador
Hobo Testigo 20801500
HOBO Refrigerador
Hobo Testigo 20801500
HOBO Refrigerador
Hobo Testigo 20801500
HOBO Refrigerador
Hobo Testigo 20801500
HOBO Refrigerador
Hobo Testigo 20801500
HOBO Refrigerador
Hobo Testigo 20801500
HOBO Refrigerador
Hobo Testigo 20801500
HOBO Refrigerador
Hobo Testigo 20801500
HOBO Refrigerador
Hobo Testigo 20801500
HOBO Refrigerador
Hobo Testigo 20801500
HOBO Refrigerador
Hobo Testigo 20801500
HOBO Refrigerador
Hobo Testigo 20801500
HOBO Refrigerador
Hobo Testigo 20801500
HOBO Refrigerador
Hobo Testigo 20801500
HOBO Refrigerador
Hobo Testigo 20801500
HOBO Refrigerador
Hobo Testigo 20801500
HOBO Refrigerador
Hobo Testigo 20801500
HOBO Refrigerador
Hobo Testigo 20801500
HOBO Refrigerador
Hobo Testigo 20801500
HOBO Refrigerador
Hobo Testigo 20801500
HOBO Refrigerador
Hobo Testigo 20801500
HOBO Refrigerador
Hobo Testigo 20801500
HOBO Refrigerador
Hobo Testigo 20801500
HOBO Refrigerador
Hobo Testigo 20801500
HOBO Refrigerador
Hobo Testigo 20801500
HOBO Refrigerador
Hobo Testigo 20801500
HOBO Refrigerador
Hobo Testigo 20801500
HOBO Refrigerador
Hobo Testigo 20801500
HOBO Refrigerador
Hobo Testigo 20801500
HOBO Refrigerador
Hobo Testigo 20801500
HOBO Refrigerador
Hobo Testigo 20801500
HOBO Refrigerador
Hobo Testigo 20801500
HOBO Refrigerador
Hobo Testigo 20801500
HOBO Refrigerador
Hobo Testigo 20801500
HOBO Refrigerador
Hobo Testigo 20801500
HOBO Refrigerador
Hobo Testigo 20801500
HOBO Refrigerador
Hobo Testigo 20801500
HOBO Refrigerador
Hobo Testigo 20801500
HOBO Refrigerador
Hobo Testigo 20801500
HOBO Refrigerador
Hobo Testigo 20801500
HOBO Refrigerador
Hobo Testigo 20801500
HOBO Refrigerador
Hobo Testigo 20801500
HOBO Refrigerador
Hobo Testigo 20801500
HOBO Refrigerador
Hobo Testigo 20801500
HOBO Refrigerador
Hobo Testigo 20801500
HOBO Refrigerador
Hobo Testigo 20801500
HOBO Refrigerador
Hobo Testigo 20801500
HOBO Refrigerador
Hobo Testigo 20801500
HOBO Refrigerador
Hobo Testigo 20801500
HOBO Refrigerador
Hobo Testigo 20801500
HOBO Refrigerador
Hobo Testigo 20801500
HOBO Refrigerador
Hobo Testigo 20801500
HOBO Refrigerador
Hobo Testigo 20801500
HOBO Refrigerador